Overview Statistics Trail Chart Weather Telemetry Raw packets
 

This is the latest recevied weather packets stored in our database for station/object SV9TNF-57. If no packets are shown the sender has not sent any weather packets the latest 10 day(s).

<< 77 78 79 80 81 82 83 >>
Time Temp. Humidity Pressure Rain* Wind** Luminosity Snow
1788103942 28.33° C 59% 995.7 hPa 0 mm 1.34 m/s, 202° - -
1788103642 28.33° C 60% 995.8 hPa 0 mm 0.89 m/s, 229° - -
1788103342 27.78° C 61% 995.7 hPa 0 mm 0.45 m/s, 163° - -
1788103042 28.33° C 60% 995.4 hPa 0 mm 0 m/s - -
1788102742 27.78° C 61% 995.4 hPa 0 mm 0.45 m/s, 111° - -
1788102442 27.78° C 61% 995.8 hPa 0 mm 4.92 m/s, 169° - -
1788102142 27.78° C 61% 995.7 hPa 0 mm 0 m/s - -
1788101842 27.78° C 61% 996.2 hPa 0 mm 2.68 m/s, 185° - -
1788101542 27.78° C 62% 995.7 hPa 0 mm 1.79 m/s, 142° - -
1788101242 27.78° C 62% 996.1 hPa 0 mm 0 m/s - -
1788100942 27.22° C 62% 996.1 hPa 0 mm 4.47 m/s, 129° - -
1788100641 27.78° C 60% 996.2 hPa 0 mm 10.28 m/s, 185° - -
1788100341 28.33° C 57% 996.1 hPa 0 mm 0.89 m/s, 136° - -
1788100041 28.33° C 59% 996.2 hPa 0 mm 1.79 m/s, 171° - -
1788099741 27.78° C 59% 996 hPa 0 mm 2.24 m/s, 217° - -
1788099441 27.78° C 59% 996.1 hPa 0 mm 4.02 m/s, 189° - -
1788099141 28.33° C 58% 996.1 hPa 0 mm 0 m/s - -
1788098841 28.33° C 57% 996.4 hPa 0 mm 5.36 m/s, 174° - -
1788098541 27.78° C 57% 996.4 hPa 0 mm 4.92 m/s, 198° - -
1788098240 28.33° C 57% 996.4 hPa 0 mm 9.83 m/s, 169° - -
1788097940 28.33° C 56% 996.4 hPa 0 mm 11.18 m/s, 222° - -
1788097640 28.33° C 57% 996.1 hPa 0 mm 4.92 m/s, 206° - -
1788097340 28.33° C 57% 996.1 hPa 0 mm 7.6 m/s, 192° - -
1788097040 28.33° C 57% 996.1 hPa 0 mm 0.89 m/s, 259° - -
1788096740 28.33° C 60% 996.1 hPa 0 mm 9.83 m/s, 184° - -

* Rain latest hour (hover to see other rain measurements)
** Current wind speed in m/s (hover to see current wind gust speed)